Location: Unspecified
(48.7670°N, 0.0000°E)
Time: 23:46:17
(UTC+00:00)

Vanguard 2 Rocket - Visible Passes

Search period start: 01 October 2020 00:00
Search period end: 11 October 2020 00:00
Orbit: 554 x 3326 km, 32.9° (Epoch: 01 October)

Date Brightness Start Highest point End Pass type
(mag) Time Alt. Az. Time Alt. Az. Time Alt. Az.
01 Oct 10.3 00:22:17 24° ESE 00:22:17 24° ESE 00:32:35 10° E visible
01 Oct 9.7 02:28:04 39° SSW 02:32:49 44° SSE 02:50:56 10° ESE visible
01 Oct 10.0 04:33:51 17° WSW 04:49:08 47° S 05:06:13 10° ESE visible
01 Oct 10.7 23:25:51 14° ESE 23:25:51 14° ESE 23:28:51 10° E visible
02 Oct 9.8 01:31:39 39° SSE 01:31:39 39° SSE 01:49:09 10° E visible
02 Oct 9.8 03:37:26 29° SW 03:47:31 48° S 04:05:37 10° ESE visible
03 Oct 10.1 00:35:13 29° SE 00:35:13 29° SE 00:46:48 10° E visible
03 Oct 9.6 02:41:01 41° SSW 02:45:58 47° S 03:04:28 10° ESE visible
03 Oct 10.0 04:46:48 15° WSW 05:02:17 44° SSW 05:19:18 10° SE visible
03 Oct 10.5 23:38:50 17° ESE 23:38:50 17° ESE 23:43:45 10° E visible
04 Oct 9.7 01:44:37 43° SSE 01:44:38 43° SSE 02:02:47 10° ESE visible
04 Oct 9.8 03:50:24 28° WSW 04:00:43 47° S 04:18:51 10° ESE visible
05 Oct 10.0 00:48:14 34° SE 00:48:14 34° SE 01:00:35 10° E visible
05 Oct 9.6 02:54:02 41° SSW 02:59:11 48° S 03:17:48 10° ESE visible
05 Oct 10.1 04:59:49 13° W 05:15:20 40° SSW 05:32:02 10° SE visible
05 Oct 10.4 23:51:54 21° ESE 23:51:54 21° ESE 23:57:56 10° E visible
06 Oct 9.6 01:57:41 46° S 01:57:49 46° S 02:16:13 10° ESE visible
06 Oct 9.9 04:03:29 26° WSW 04:13:54 44° SSW 04:31:48 10° SE visible
07 Oct 9.9 01:01:23 37° SE 01:01:23 37° SE 01:14:09 10° ESE visible
07 Oct 9.6 03:07:11 39° SW 03:12:25 46° S 03:30:55 10° ESE visible
07 Oct 10.2 05:12:59 11° W 05:28:17 34° SSW 05:44:16 10° SSE visible
08 Oct 10.3 00:05:08 23° ESE 00:05:08 23° ESE 00:11:42 10° E visible
08 Oct 9.5 02:10:55 46° S 02:11:04 46° S 02:29:27 10° ESE visible
08 Oct 9.9 04:16:43 23° WSW 04:27:01 39° SSW 04:44:21 10° SE visible
09 Oct 9.8 01:14:43 38° SE 01:14:43 38° SE 01:27:31 10° ESE visible
09 Oct 9.6 03:20:31 36° SW 03:25:39 42° SSW 03:43:43 10° SE visible
09 Oct 10.3 05:27:02 10° W 05:41:08 27° SW 05:55:47 10° SSE visible
10 Oct 10.3 00:18:34 24° ESE 00:18:34 24° ESE 00:25:14 10° ESE visible
10 Oct 9.5 02:24:22 44° S 02:24:23 44° S 02:42:27 10° ESE visible
10 Oct 10.0 04:30:10 20° WSW 04:40:04 33° SSW 04:56:22 10° SSE visible
10 Oct 10.8 23:22:27 10° E 23:22:27 10° E 23:22:40 10° E visible
